[[{"header":{"parameterUnit":"m.s-1","parameterCategory":1,"la1":30.2992,"la2":30.254,"lo1":-89.0895,"lo2":-89.0443,"dy":0.0025,"dx":0.0025,"nx":19,"ny":19,"refTime":"2026-05-05T09:00:00:Z","depth":0,"parameterNumber":2,"parameterNumberName":"U-component_of_WINDS"},"data":[0,0,0,1.1963,1.1962,1.1934,1.1934,1.1908,1.1908,0,0,0,0,0,0,0,0,0,0,0,1.1979,1.1979,1.1963,1.1962,1.1934,1.1934,1.1908,1.1908,0,0,0,0,0,0,0,0,0,0,0,1.1979,1.1979,1.1979,1.1962,1.1934,1.1934,1.1908,1.1925,0,0,0,0,0,0,0,0,0,0,1.1951,1.1975,1.1979,1.1979,1.1962,1.1934,1.1934,1.1926,1.1924,1.1926,0,1.1931,0,1.1919,1.1907,1.1907,0,0,0,1.1956,1.1976,1.1961,1.1979,1.1962,1.1934,1.1945,1.1925,1.1923,1.1924,1.1931,1.1929,1.1919,1.1907,1.1907,1.1939,1.1939,0,0,1.1957,1.1978,1.1963,1.196,1.1967,1.1946,1.1944,1.1924,1.1932,1.193,1.1928,1.1918,1.1907,1.1907,1.1938,1.1939,0,0,0,1.1966,1.198,1.1965,1.1962,1.1956,1.1945,1.1943,1.1933,1.1926,1.1928,1.1918,1.1907,1.1907,1.1938,1.1939,1.198,0,0,0,1.1967,1.1985,1.1966,1.1978,1.1957,1.1944,1.1953,1.1928,1.1925,1.1918,1.1907,1.1907,1.1937,1.1938,1.1978,1.1996,0,0,0,1.1978,1.1986,1.1985,1.198,1.1968,1.1944,1.1936,1.1927,1.1919,1.1907,1.1907,1.1937,1.1938,1.1976,1.1992,1.2008,0,0,0,1.1996,1.2023,1.1986,1.2011,1.1969,1.1971,1.1936,1.1937,1.1931,1.1907,1.1937,1.1938,1.1975,1.199,1.2006,1.2025,1.2035,0,0,1.2042,1.2029,1.2043,1.2008,1.2022,1.1973,1.1992,1.1968,1.1948,1.1942,1.1943,1.1978,1.1992,1.2008,1.2086,1.2095,0,0,0,1.2064,1.2073,1.2073,1.2069,1.2051,1.2035,1.2006,1.1996,1.199,1.195,1.1988,1.1996,1.2004,1.2012,1.2019,1.2024,1.1943,1.1943,1.1943,1.2158,1.213,1.2149,1.2117,1.2113,1.2081,1.2075,1.2056,1.203,1.2039,1.2037,1.2088,1.2098,1.2103,1.2109,1.2046,1.2046,1.2046,1.2046,1.222,1.2228,1.2191,1.2196,1.2165,1.2169,1.2138,1.2119,1.2116,1.2088,1.2094,1.2065,1.2113,1.2116,1.2049,1.2048,1.2048,1.2048,1.2048,1.2277,1.2276,1.2264,1.2253,1.2248,1.2214,1.2212,1.2185,1.2159,1.2165,1.2158,1.2157,1.2152,1.2164,1.2164,1.2164,1.2164,1.2165,1.2165,1.2341,1.2326,1.2329,1.231,1.2302,1.2288,1.2255,1.2246,1.2228,1.2208,1.2208,1.2179,1.2124,1.211,1.2167,1.2167,1.2166,1.2166,1.2166,1.2413,1.2392,1.2396,1.2388,1.2362,1.2357,1.2321,1.2305,1.2293,1.2293,1.2262,1.2227,1.2212,1.2206,1.2194,1.227,1.227,1.227,1.227,1.246,1.245,1.2446,1.2435,1.2421,1.2388,1.2391,1.2364,1.2333,1.2323,1.2308,1.229,1.2286,1.2273,1.2266,1.2254,1.2344,1.2344,1.2344,1.2501,1.2488,1.2497,1.2466,1.2443,1.2423,1.2424,1.241,1.2371,1.2346,1.2314,1.2311,1.2282,1.2274,1.2249,1.2239,1.2216,0,0]},{"header":{"parameterUnit":"m.s-1","parameterCategory":1,"la1":30.2992,"la2":30.254,"lo1":-89.0895,"lo2":-89.0443,"dy":0.0025,"dx":0.0025,"nx":19,"ny":19,"refTime":"2026-05-05T09:00:00:Z","depth":0,"parameterNumber":3,"parameterNumberName":"V-component_of_WINDS"},"data":[0,0,0,5.6856,5.6859,5.6984,5.6985,5.7155,5.7157,0,0,0,0,0,0,0,0,0,0,0,5.6829,5.683,5.6856,5.6859,5.6984,5.6985,5.7155,5.7157,0,0,0,0,0,0,0,0,0,0,0,5.6828,5.683,5.6832,5.686,5.6984,5.6985,5.7154,5.7055,0,0,0,0,0,0,0,0,0,0,5.6931,5.6917,5.6829,5.6832,5.686,5.6984,5.6985,5.705,5.7061,5.7104,0,5.7147,0,5.7155,5.7169,5.717,0,0,0,5.6851,5.6908,5.6933,5.6832,5.6862,5.6984,5.6925,5.7056,5.7069,5.7118,5.715,5.7156,5.7158,5.717,5.7171,5.745,5.7452,0,0,5.6844,5.6856,5.6924,5.6942,5.6927,5.6921,5.6929,5.7064,5.7097,5.715,5.7159,5.7161,5.7171,5.7173,5.7449,5.7451,0,0,0,5.683,5.6852,5.6873,5.6935,5.6957,5.6925,5.6934,5.7091,5.7097,5.7161,5.7163,5.7172,5.7175,5.7447,5.7449,5.7546,0,0,0,5.6825,5.6843,5.687,5.6879,5.6955,5.7027,5.6959,5.7088,5.7103,5.7162,5.7172,5.7176,5.7445,5.7448,5.754,5.759,0,0,0,5.6817,5.6842,5.6864,5.6879,5.6934,5.7024,5.7038,5.7091,5.7104,5.717,5.7177,5.7444,5.7448,5.7534,5.758,5.7667,0,0,0,5.6811,5.6948,5.6866,5.7018,5.6933,5.7084,5.7037,5.7148,5.7216,5.7173,5.7445,5.7449,5.7532,5.7574,5.7661,5.7743,5.7779,0,0,5.699,5.697,5.7058,5.6989,5.7158,5.7064,5.7246,5.7295,5.7288,5.7395,5.7402,5.7542,5.758,5.7666,5.7972,5.8001,0,0,0,5.7119,5.7183,5.7225,5.7292,5.7334,5.7373,5.7393,5.741,5.7501,5.7347,5.7596,5.7618,5.7668,5.7707,5.7731,5.7772,5.7468,5.7467,5.7467,5.739,5.7376,5.752,5.7521,5.7585,5.7604,5.7654,5.768,5.7646,5.7704,5.7737,5.7925,5.797,5.7988,5.8032,5.7778,5.7779,5.7779,5.7779,5.7651,5.7738,5.7689,5.7812,5.7795,5.7896,5.7918,5.789,5.7979,5.79,5.7943,5.7857,5.802,5.8057,5.7786,5.7785,5.7784,5.7784,5.7783,5.7827,5.7867,5.7887,5.798,5.8052,5.8046,5.8135,5.8115,5.8096,5.8139,5.8169,5.8168,5.8163,5.8155,5.8155,5.8156,5.8157,5.8157,5.8157,5.8002,5.8022,5.8101,5.8156,5.8195,5.8243,5.8261,5.8298,5.8333,5.8311,5.8311,5.8269,5.8039,5.7982,5.8168,5.8166,5.8164,5.8164,5.8163,5.8273,5.8208,5.8331,5.837,5.8431,5.8503,5.8476,5.8551,5.8578,5.8622,5.8571,5.8404,5.8381,5.8362,5.8314,5.8574,5.8574,5.8574,5.8575,5.8422,5.8408,5.8528,5.8591,5.8651,5.8638,5.8773,5.8787,5.8791,5.8806,5.8764,5.8699,5.868,5.8668,5.8642,5.8597,5.8924,5.8925,5.8925,5.8587,5.8577,5.8699,5.8704,5.8749,5.8788,5.8914,5.8985,5.8975,5.8939,5.8816,5.8802,5.8696,5.8663,5.8625,5.8585,5.8502,0,0]}]]